Regional Weather Roundup
Issued by NWS Mt. Holly, NJ

Home | Current Version | Previous Version | Text Only | Print | Product List | Glossary On
Versions: 1 2 3 4 5 6 7 8 9 10 11 12 13 14 15 16 17 18 19 20 21 22 23 24 25 26 27 28 29 30 31 32 33 34 35 36 37 38 39 40 41 42 43 44 45 46 47 48 49 50
000
ASUS41 KPHI 230411
RWRPHI

REGIONAL WEATHER ROUNDUP
NATIONAL WEATHER SERVICE MOUNT HOLLY NJ
1200 AM EDT SAT MAY 23 2015

NOTE:  "FAIR" INDICATES FEW OR NO CLOUDS BELOW 12,000 FEET WITH NO
SIGNIFICANT WEATHER AND/OR OBSTRUCTIONS TO VISIBILITY.

 * = STATION DOES NOT REPORT PRECIPITATION (E.G. RAIN, SNOW, ETC.)
        OR FOG.

NJZ015>026-230500-
SOUTHERN NEW JERSEY

CITY           SKY/WX    TMP DP  RH WIND       PRES   REMARKS
POMONA         CLEAR     60  43  53 W8        30.16R
RIO GRANDE*    MOCLDY    64  48  55 W9        30.18R
MILLVILLE      CLEAR     60  44  55 W7        30.18R
WRIGHTSTOWN    CLEAR     58  37  45 N8        30.15R
MOUNT HOLLY    CLEAR     59  34  39 N7        30.17R
TRENTON        CLEAR     58  35  42 N6        30.17R

$$
NJZ001>014-230500-
NORTHERN NEW JERSEY

CITY           SKY/WX    TMP DP  RH WIND       PRES   REMARKS
SUSSEX         CLEAR     54  32  43 N8        30.20R
ANDOVER*         N/A     53  35  50 N9        30.19R
MORRISTOWN     CLEAR     59  32  36 NW3       30.17R
NEWARK         CLEAR     60  33  36 NW13      30.15R
TETERBORO      CLEAR     59  32  36 CALM      30.15R
CALDWELL       CLEAR     57  33  40 VRB6      30.17R
SOMERVILLE     CLEAR     49  42  77 CALM      30.15R
TOMS RIVER*    CLEAR    N/A N/A N/A NW12      30.16R

$$
PAZ043-044-047-054-055-060>062-066>071-230500-
EASTERN PENNSYLVANIA

CITY           SKY/WX    TMP DP  RH WIND       PRES   REMARKS
PHILADELPHIA   CLEAR     66  21  18 NW12      30.18R
NORTH PHILA    CLEAR     62  32  32 N10       30.19R
BLUE BELL      CLEAR     61  34  36 CALM      30.18R
DOYLESTOWN     CLEAR     56  32  40 N6        30.18R
QUAKERTOWN*    CLEAR     57  34  41 NW6       30.19R
POTTSTOWN      CLEAR     57  25  29 NW3       30.21R
LANCASTER      CLEAR     55  27  34 NW9       30.22R
COATESVILLE    CLEAR     57  25  28 NW12      30.21R
READING        FAIR      57  27  31 NW9       30.20R
ALLENTOWN      CLEAR     56  33  42 NW6       30.18R
MOUNT POCONO   CLEAR     47  32  56 NW12G22   30.18R
HAZLETON       CLEAR     52  30  43 NW12G25   30.23R
WILKES BARRE   CLEAR     51  28  41 N10       30.23R

$$
DEZALL-MDZ008-012-015-019-020-230500-
DELAWARE AND EASTERN MARYLAND

CITY           SKY/WX    TMP DP  RH WIND       PRES   REMARKS
WILMINGTON     CLEAR     59  31  34 NW12      30.20R
DOVER          CLEAR     63  46  54 W8        30.16R
GEORGETOWN     CLEAR     61  49  64 CALM      30.21R
EASTON         FAIR      64  50  59 NW7       30.26R
PATUXENT       CLEAR     60  50  69 W7        30.22R
OCEAN CITY     CLEAR     62  50  64 W9        30.19R
WALLOPS ISLAND CLEAR     62  53  72 SW7       30.22R
CAMBRIDGE      FAIR      61  48  63 CALM      30.22R
SALISBURY      CLEAR     56  51  84 W3        30.20R

$$
PAZ001-021-NYZ056-072-MDZ011-DCZ001-230500-
OTHER NEARBY LOCATIONS

CITY           SKY/WX    TMP DP  RH WIND       PRES   REMARKS
HARRISBURG     CLEAR     59  27  29 NW14      30.24R
STATE COLLEGE  CLEAR     48  25  40 NW8       30.29R
WILLIAMSPORT   CLEAR     52  22  30 W10       30.24R
BINGHAMTON     CLEAR     41  24  51 NW9       30.22R
NEW YORK CITY  CLEAR     61  31  32 VRB5      30.18R
BALTIMORE      PTCLDY    59  36  42 NW6       30.23R
WASHINGTON DC  PTCLDY    67  45  45 W7        30.24R

$$


USA.gov is the U.S. government's official web portal to all federal, state and local government web resources and services.